Location: Kampung Segan
(3.1399°N, 113.1002°E)
Time: 13:21:28
(UTC+00:00)

Meteor 1-24 Rocket - Pass Details

Date: 05 August 2024
Orbit: 790 x 926 km, 81.3° (Epoch: 07 September)

Event Time Altitude Azimuth Distance (km) Brightness Sun altitude
Rises 21:08:12 0° 343° (NNW) 3,531 7.0 -19.4°
Reaches altitude 10° 21:10:44 10° 338° (NNW) 2,602 6.2 -18.8°
Maximum altitude 21:16:25 47° 266° (W) 1,211 4.1 -17.5°
Drops below altitude 10° 21:22:10 10° 193° (SSW) 2,621 6.0 -16.1°
Sets 21:24:44 0° 187° (S) 3,558 6.7 -15.5°
